Location: Unspecified
(42.3650°N, 71.1030°W)
Time: 15:49:05
(UTC+00:00)

Tiros 1 - Pass Details

Date: 03 July 2024
Orbit: 624 x 656 km, 48.4° (Epoch: 13 July)

Event Time Altitude Azimuth Distance (km) Brightness Sun altitude
Rises 04:31:44 0° 293° (WNW) 2,904 10.9 -24.6°
Reaches altitude 10° 04:34:07 10° 299° (WNW) 1,997 10.0 -24.6°
Maximum altitude 04:38:33 46° 13° (NNE) 839 8.1 -24.7°
Drops below altitude 10° 04:42:59 10° 88° (E) 2,002 9.7 -24.7°
Enters shadow 04:44:45 - 93° (E) 2,667 10.3 -24.7°
Sets 04:45:23 0° 94° (E) 2,912 - -24.7°
